Tracking 19280 objects as of 15-Nov-2018
HD Live streaming from Space Station
objects crossing your sky now

TDRS 10

Track TDRS 10 now!
TDRS 10 is classified as:


NORAD ID: 27566
Int'l Code: 2002-055A
Perigee: 35,761.4 km
Apogee: 35,828.3 km
Inclination: 5.9 °
Period: 1,436.2 minutes
Semi major axis: 42165 km
RCS: 5.0118 m2 (large)
Launch date: December 5, 2002
Source: United States (US)
Launch site: AIR FORCE EASTERN TEST RANGE (AFETR)

Tracking and communications with space shuttle, other missions.
aabbcc
Your satellite tracking list
Your tracking list is empty




NASA's NSSDC Master Catalog

Two Line Element Set (TLE):
1 27566U 02055A   18318.48220498 +.00000095 +00000-0 +00000-0 0  9990
2 27566 005.9131 056.1586 0007935 228.8044 130.9942 01.00267706058448
Source of the keplerian elements: AFSPC